Location: Ellingshausen
(50.5460°N, 10.4723°E)
Time: 12:34:18
(UTC+00:00)

Cosmos 676 Rocket - Pass Details

Date: 16 April 2026
Orbit: 750 x 779 km, 74.0° (Epoch: 19 May)

Event Time Altitude Azimuth Distance (km) Brightness Sun altitude
Rises 23:18:51 0° 335° (NNW) 3,268 8.2 -29.1°
Reaches altitude 10° 23:21:15 10° 334° (NNW) 2,333 7.2 -29.1°
Enters shadow 23:25:41 62° 321° (NW) 867 4.3 -29.0°
